TimeEST,TemperatureF,Dew PointF,Humidity,Sea Level PressureIn,VisibilityMPH,Wind Direction,Wind SpeedMPH,Gust SpeedMPH,PrecipitationIn,Events,Conditions,WindDirDegrees,DateUTC
12:15 AM,50.0,44.6,82,29.81,10.0,SSW,5.8,-,N/A,,Clear,210,2013-02-28 05:15:00
12:35 AM,50.0,44.6,82,29.81,10.0,SW,5.8,-,N/A,,Clear,220,2013-02-28 05:35:00
12:55 AM,48.2,44.6,87,29.81,10.0,SSW,3.5,-,N/A,,Clear,210,2013-02-28 05:55:00
1:15 AM,48.2,44.6,87,29.81,10.0,SSW,4.6,-,N/A,,Clear,210,2013-02-28 06:15:00
1:55 AM,46.4,44.6,93,29.80,10.0,SSW,3.5,-,N/A,,Clear,210,2013-02-28 06:55:00
2:15 AM,46.4,42.8,87,29.80,10.0,SW,3.5,-,N/A,,Clear,220,2013-02-28 07:15:00
2:35 AM,46.4,42.8,87,29.80,10.0,SW,3.5,-,N/A,,Clear,230,2013-02-28 07:35:00
2:55 AM,46.4,42.8,87,29.80,10.0,SW,3.5,-,N/A,,Clear,220,2013-02-28 07:55:00
3:15 AM,44.6,42.8,93,29.79,10.0,Calm,Calm,-,N/A,,Clear,0,2013-02-28 08:15:00
3:35 AM,44.6,42.8,93,29.79,10.0,Calm,Calm,-,N/A,,Clear,0,2013-02-28 08:35:00
3:55 AM,44.6,42.8,93,29.79,10.0,Calm,Calm,-,N/A,,Clear,0,2013-02-28 08:55:00
4:15 AM,44.6,41.0,87,29.79,10.0,Calm,Calm,-,N/A,,Clear,0,2013-02-28 09:15:00
4:35 AM,44.6,42.8,93,29.80,10.0,Calm,Calm,-,N/A,,Clear,0,2013-02-28 09:35:00
4:55 AM,42.8,41.0,93,29.80,10.0,Calm,Calm,-,N/A,,Clear,0,2013-02-28 09:55:00
5:15 AM,42.8,41.0,93,29.80,10.0,Calm,Calm,-,N/A,,Clear,0,2013-02-28 10:15:00
5:35 AM,41.0,41.0,100,29.80,10.0,Calm,Calm,-,N/A,,Clear,0,2013-02-28 10:35:00
5:55 AM,37.4,37.4,100,29.80,10.0,Calm,Calm,-,N/A,,Clear,0,2013-02-28 10:55:00
6:15 AM,41.0,41.0,100,29.81,10.0,Calm,Calm,-,N/A,,Clear,0,2013-02-28 11:15:00
6:35 AM,42.8,42.8,100,29.81,10.0,Calm,Calm,-,N/A,,Clear,0,2013-02-28 11:35:00
6:55 AM,42.8,42.8,100,29.81,10.0,SW,3.5,-,N/A,,Clear,230,2013-02-28 11:55:00
7:15 AM,44.6,42.8,93,29.83,10.0,SW,4.6,-,N/A,,Clear,230,2013-02-28 12:15:00
7:35 AM,44.6,42.8,93,29.83,10.0,SW,5.8,-,N/A,,Clear,230,2013-02-28 12:35:00
7:55 AM,46.4,42.8,87,29.84,10.0,SW,6.9,-,N/A,,Clear,230,2013-02-28 12:55:00
8:15 AM,48.2,42.8,82,29.84,10.0,SW,6.9,-,N/A,,Clear,230,2013-02-28 13:15:00
8:35 AM,50.0,42.8,76,29.85,10.0,SW,8.1,-,N/A,,Clear,230,2013-02-28 13:35:00
9:15 AM,51.8,41.0,67,29.85,10.0,WSW,11.5,18.4,N/A,,Clear,240,2013-02-28 14:15:00
9:35 AM,51.8,37.4,58,29.84,10.0,WSW,15.0,23.0,N/A,,Clear,250,2013-02-28 14:35:00
9:55 AM,51.8,37.4,58,29.84,10.0,West,16.1,21.9,N/A,,Clear,260,2013-02-28 14:55:00
10:15 AM,53.6,37.4,54,29.84,10.0,West,15.0,24.2,N/A,,Clear,260,2013-02-28 15:15:00
10:35 AM,53.6,35.6,51,29.83,10.0,WSW,17.3,23.0,N/A,,Clear,250,2013-02-28 15:35:00
10:55 AM,53.6,35.6,51,29.83,10.0,SW,12.7,24.2,N/A,,Clear,230,2013-02-28 15:55:00
11:15 AM,55.4,35.6,47,29.83,10.0,West,15.0,21.9,N/A,,Clear,260,2013-02-28 16:15:00
11:35 AM,55.4,35.6,47,29.82,10.0,West,15.0,20.7,N/A,,Clear,260,2013-02-28 16:35:00
11:55 AM,55.4,35.6,47,29.81,10.0,West,16.1,20.7,N/A,,Clear,260,2013-02-28 16:55:00
12:15 PM,55.4,35.6,47,29.81,10.0,West,12.7,24.2,N/A,,Clear,270,2013-02-28 17:15:00
12:35 PM,55.4,35.6,47,29.80,10.0,WSW,11.5,21.9,N/A,,Clear,250,2013-02-28 17:35:00
12:55 PM,55.4,35.6,47,29.80,10.0,WNW,18.4,28.8,N/A,,Clear,290,2013-02-28 17:55:00
1:15 PM,57.2,35.6,44,29.79,10.0,West,15.0,24.2,N/A,,Clear,270,2013-02-28 18:15:00
1:35 PM,57.2,35.6,44,29.79,10.0,West,17.3,24.2,N/A,,Clear,280,2013-02-28 18:35:00
1:55 PM,57.2,33.8,41,29.78,10.0,West,20.7,27.6,N/A,,Clear,270,2013-02-28 18:55:00
2:15 PM,59.0,33.8,39,29.78,10.0,West,19.6,31.1,N/A,,Clear,270,2013-02-28 19:15:00
2:35 PM,59.0,35.6,42,29.79,10.0,West,19.6,23.0,N/A,,Clear,270,2013-02-28 19:35:00
2:55 PM,57.2,33.8,41,29.79,10.0,West,16.1,25.3,N/A,,Clear,270,2013-02-28 19:55:00
3:15 PM,59.0,35.6,42,29.79,10.0,WSW,16.1,24.2,N/A,,Clear,240,2013-02-28 20:15:00
3:35 PM,59.0,35.6,42,29.80,10.0,WSW,17.3,24.2,N/A,,Clear,250,2013-02-28 20:35:00
3:55 PM,59.0,35.6,42,29.79,10.0,West,11.5,-,N/A,,Clear,270,2013-02-28 20:55:00
4:35 PM,57.2,35.6,44,29.80,10.0,West,10.4,21.9,N/A,,Clear,260,2013-02-28 21:35:00
4:55 PM,55.4,35.6,47,29.81,10.0,West,16.1,23.0,N/A,,Clear,260,2013-02-28 21:55:00
5:15 PM,55.4,35.6,47,29.81,10.0,West,13.8,19.6,N/A,,Clear,270,2013-02-28 22:15:00
5:35 PM,55.4,35.6,47,29.82,10.0,WNW,11.5,18.4,N/A,,Clear,290,2013-02-28 22:35:00
5:55 PM,53.6,35.6,51,29.83,10.0,West,8.1,-,N/A,,Clear,280,2013-02-28 22:55:00
6:15 PM,53.6,35.6,51,29.84,10.0,West,11.5,-,N/A,,Clear,280,2013-02-28 23:15:00
6:35 PM,51.8,35.6,54,29.84,10.0,West,8.1,-,N/A,,Clear,280,2013-02-28 23:35:00
6:55 PM,51.8,35.6,54,29.86,10.0,West,6.9,-,N/A,,Clear,270,2013-02-28 23:55:00
7:15 PM,51.8,37.4,58,29.86,10.0,West,6.9,-,N/A,,Clear,270,2013-03-01 00:15:00
7:35 PM,51.8,35.6,54,29.87,10.0,West,5.8,-,N/A,,Clear,280,2013-03-01 00:35:00
7:55 PM,50.0,37.4,62,29.87,10.0,WNW,3.5,-,N/A,,Clear,290,2013-03-01 00:55:00
8:15 PM,48.2,37.4,66,29.88,10.0,WNW,3.5,-,N/A,,Clear,290,2013-03-01 01:15:00
8:35 PM,46.4,37.4,71,29.88,10.0,Calm,Calm,-,N/A,,Clear,0,2013-03-01 01:35:00
8:55 PM,44.6,37.4,76,29.88,10.0,Calm,Calm,-,N/A,,Clear,0,2013-03-01 01:55:00
9:15 PM,44.6,37.4,76,29.88,10.0,WNW,3.5,-,N/A,,Clear,300,2013-03-01 02:15:00
9:55 PM,44.6,37.4,76,29.88,10.0,WNW,5.8,-,N/A,,Clear,290,2013-03-01 02:55:00
10:15 PM,44.6,37.4,76,29.89,10.0,West,5.8,-,N/A,,Clear,270,2013-03-01 03:15:00
10:35 PM,44.6,35.6,71,29.88,10.0,West,8.1,-,N/A,,Clear,280,2013-03-01 03:35:00
10:55 PM,46.4,35.6,66,29.89,10.0,WNW,9.2,-,N/A,,Clear,290,2013-03-01 03:55:00
11:15 PM,46.4,35.6,66,29.88,10.0,West,11.5,17.3,N/A,,Clear,280,2013-03-01 04:15:00
11:35 PM,46.4,33.8,62,29.89,10.0,West,8.1,-,N/A,,Clear,270,2013-03-01 04:35:00
11:55 PM,44.6,33.8,66,29.89,10.0,West,6.9,-,N/A,,Clear,280,2013-03-01 04:55:00